Regional Weather Roundup
Issued by NWS Upton, NY

Current Version | Previous Version | Text Only | Print | Product List | Glossary On
Versions: 1 2 3 4 5 6 7 8 9 10 11 12 13 14 15 16 17 18 19 20 21 22 23 24 25 26 27
000
ASUS41 KOKX 251705
RWROKX
REGIONAL WEATHER ROUNDUP
NATIONAL WEATHER SERVICE NEW YORK NY
100 PM EDT SAT OCT 25 2014

NOTE: "FAIR" INDICATES FEW OR NO CLOUDS BELOW 12,000 FEET WITH NO
SIGNIFICANT WEATHER AND/OR OBSTRUCTIONS TO VISIBILITY.

NYZ071-072-176-178-NJZ106-104-251800-
NEW YORK CITY METRO AREA


CITY           SKY/WX    TMP DP  RH WIND       PRES   REMARKS
CENTRAL PARK   SUNNY     63  41  44 VRB3      29.80F
LAGUARDIA APRT MOSUNNY   63  40  42 W9        29.77F
KENNEDY INTL   MOSUNNY   63  41  44 SW12      29.79F
NEWARK/LIBERTY MOSUNNY   66  41  40 W12       29.78F
BRNX BOT. GARD   N/A     63  41  45 SW7       29.78F
TETERBORO      SUNNY     66  42  41 CALM      29.76F
$$

NYZ177-179-078>081-251800-
LONG ISLAND NEW YORK

CITY           SKY/WX    TMP DP  RH WIND       PRES   REMARKS
FARMINGDALE    SUNNY     63  43  48 W9        29.77F
ISLIP          MOSUNNY   64  42  44 W13       29.75F
SHIRLEY        LGT RAIN  64  42  44 W9        29.77F
WESTHAMPTON    SUNNY     62  45  53 SW9       29.77F
MONTAUK POINT    N/A     61  45  55 W10G18    29.76F
$$

NYZ052-065-067-251800-
HUDSON VALLEY

CITY           SKY/WX    TMP DP  RH WIND       PRES   REMARKS
WHITE PLAINS   SUNNY     63  42  46 NW9       29.75F
NEWBURGH       MOSUNNY   61  45  55 NW13G23   29.77F
MONTGOMERY     PTSUNNY   63  42  46 W10       29.74F
POUGHKEEPSIE   MOSUNNY   64  43  46 VRB5      29.74F
ALBANY         PTSUNNY   58  45  62 E3        29.72F
$$

NJZ001-105-106-008-010-013-015-019>022-104-251800-
NEW JERSEY

CITY           SKY/WX    TMP DP  RH WIND       PRES   REMARKS
NEWARK/LIBERTY MOSUNNY   66  41  40 W12       29.78F
TETERBORO      SUNNY     66  42  41 CALM      29.76F
CALDWELL       SUNNY     64  39  39 VRB6G16   29.78F
MORRISTOWN     SUNNY     66  41  39 N5G17     29.78F
SOMERVILLE     SUNNY     67  41  38 W8        29.76F
SUSSEX         MOSUNNY   66  42  41 W8        29.76F
ANDOVER          N/A     63  40  42 MISG      29.77F
TRENTON        SUNNY     65  42  43 W10G21    29.79F
MILLVILLE      SUNNY     66  43  43 W9        29.85F
ATLANTIC CITY  SUNNY     67  43  41 W7        29.83F
WRIGHTSTOWN    SUNNY     67  44  43 W15G21    29.79F HAZE
TOMS RIVER     SUNNY     66  43  42 W6        29.82F
BELMAR         SUNNY     64  41  42 W6        29.80F
$$

PAZ047>061-062-071-251800-
EASTERN PENNSYLVANIA

CITY           SKY/WX    TMP DP  RH WIND       PRES   REMARKS
PHILADELPHIA   MOSUNNY   67  43  41 SW13      29.82F
ALLENTOWN      MOSUNNY   66  42  41 W15G21    29.79F
SCRANTON       MOSUNNY   61  42  49 SW6       29.77F
$$

CTZ002-004>006-009-010-012-RIZ004-006-007-MAZ004-011-015-251800-
SOUTHERN NEW ENGLAND
 IN CT

CITY           SKY/WX    TMP DP  RH WIND       PRES   REMARKS
BRADLEY INTL   PTSUNNY   67  43  41 NW15G23   29.71F
HARTFORD       SUNNY     64  43  46 VRB7G21   29.72F
DANBURY        SUNNY     62  41  46 W10       29.76F
WTRBRY/OXFORD  SUNNY     59  41  51 NW12      29.75F
BRIDGEPORT     SUNNY     62  45  53 SW12      29.75F
MERIDEN        SUNNY     63  40  42 VRB7      29.74F
NEW HAVEN      MOSUNNY   62  46  55 SW9       29.75F
CHESTER        FAIR      63  37  39 W9        29.74F
GROTON         SUNNY     62  45  53 SW12      29.72F
WILLIMANTIC    SUNNY     62  40  44 W6        29.73F

 IN RI

CITY           SKY/WX    TMP DP  RH WIND       PRES   REMARKS
PROVIDENCE     SUNNY     63  42  46 SW10      29.70F
BLOCK ISLAND   SUNNY     61  43  51 W18       29.74F
WESTERLY       SUNNY     62  44  51 SW10      29.73F

 IN MA

CITY           SKY/WX    TMP DP  RH WIND       PRES   REMARKS
BOSTON         SUNNY     62  41  46 W13       29.66F
WORCESTER      SUNNY     57  37  47 W16G23    29.70F
WESTFIELD      MOSUNNY   64  43  46 VRB5      29.71F
PROVINCETOWN   SUNNY     63   7  11 SW10G17   29.67F
NANTUCKET      SUNNY     61  49  64 SW17      29.70F
$$

ANZ330-335-338-340-345-350-353-355-251800-
COASTAL MARINE OBSERVATIONS


STATION/POSITION TIME  SKY/WX   TEMP    WIND        PRES    VSBY  WAVE
                                AIR SEA DIR/SP/G                  HT/PER
                 (UTC)          (F)     (DEG/KT/KT) (MB)    (MI)  (FT/S)
NY HARB ENTRANCE NOT AVBL
4S FIRE IS       1700               62                N/A           2/10
20S FIRE ISLAND  1700            59 63  280/ 16/ 19 1008.7          3/ 4
23SW MTP         1700                                 N/A           2/ 9
HUDSON CANYON    1700            59 66  270/ 14/ 17 1009.5          3/ 5
EXECUTION ROCKS  1700            61 62  230/  6/  8   N/A
WESTERN LI SOUND 1700            60     240/ 10/ 12   N/A           1/ 3
CENTRAL LI SOUND 1600            57 63  260/ 10/ 14   N/A           1/ 4
EASTERN LI SOUND 1600            59 63  250/ 14/ 16   N/A
ROBBINS REEF     1700            61     250/ 11/ 12 1007.3
$$


>>>>>>>>>>>>>>>>>>>>>>>>>>>> KEY <<<<<<<<<<<<<<<<<<<<<<<<<<<
>                                                          <
>     SKY/WX - SKY CONDITION/PRESENT WEATHER               <
>     TMP    - TEMPERATURE IN FAHRENHEIT                   <
>     DP     - DEWPOINT IN FAHRENHEIT                      <
>     RH     - RELATIVE HUMIDITY IN PERCENT                <
>     WIND   - DIRECTION AND SPEED IN MPH                  <
>     PRES   - MEAN SEA LEVEL PRESSURE IN INCHES OF HG     <
>     WCI    - WIND CHILL INDEX                            <
>     VSB    - VISIBILITY IN MILES                         <
>     HX     - HEAT INDEX                                  <
>     TC     - TEMPERATURE IN CELSIUS                      <
>     VRB    - VARIABLE WIND DIRECTION                     <
>                                                          <
>>>>>>>>>>>>>>>>>>>>>>>>>>>> KEY <<<<<<<<<<<<<<<<<<<<<<<<<<<





USA.gov is the U.S. government's official web portal to all federal, state and local government web resources and services.